Tracking 29090 objects as of 15-Jul-2024
HD Live streaming from Space Station
objects crossing your sky now

COSMOS 374

Track COSMOS 374 now!
10-day predictions
COSMOS 374 is classified as:


NORAD ID: 4594
Int'l Code: 1970-089A
Perigee: 570.0 km
Apogee: 2,002.2 km
Inclination: 62.9 °
Period: 111.1 minutes
Semi major axis: 7657 km
RCS: 0.5589 m2 (medium)
Launch date: October 23, 1970
Source: Commonwealth of Independent States (former USSR) (CIS)
Launch site: TYURATAM MISSILE AND SPACE COMPLEX (TTMTR)
Your satellite tracking list
Your tracking list is empty




NASA's NSSDC Master Catalog

Two Line Element Set (TLE):
1 04594U 70089A   24196.88126084  .00000253  00000-0  15271-3 0  9994
2 04594  62.9468  34.4833 0935192 357.1821   2.4112 12.95713973577860
Source of the keplerian elements: AFSPC